Time,TemperatureF,DewpointF,PressureIn,WindDirection,WindDirectionDegrees,WindSpeedMPH,WindSpeedGustMPH,Humidity,HourlyPrecipIn,Conditions,Clouds,dailyrainin,SolarRadiationWatts/m^2,SoftwareType,DateUTC
2013-02-25 00:01:00,30.9,29.0,30.43,ENE,59,0.0,-999.0,93,-99.99,,,0.00,0,weatherlink.com 1.10,2013-02-25 00:01:00,
2013-02-25 00:16:00,31.4,30.0,30.44,ENE,59,0.0,-999.0,93,-99.99,,,0.00,0,weatherlink.com 1.10,2013-02-25 00:16:00,
2013-02-25 00:31:00,30.5,29.0,30.44,ENE,59,0.0,-999.0,92,-99.99,,,0.00,0,weatherlink.com 1.10,2013-02-25 00:31:00,
2013-02-25 00:46:00,30.1,28.0,30.44,ENE,59,0.0,-999.0,93,-99.99,,,0.00,0,weatherlink.com 1.10,2013-02-25 00:46:00,
2013-02-25 01:01:00,29.8,28.0,30.45,ENE,59,0.0,-999.0,93,-99.99,,,0.00,0,weatherlink.com 1.10,2013-02-25 01:01:00,
2013-02-25 01:16:00,29.6,28.0,30.44,ENE,59,0.0,-999.0,93,-99.99,,,0.00,0,weatherlink.com 1.10,2013-02-25 01:16:00,
2013-02-25 01:31:00,29.5,28.0,30.45,ENE,59,0.0,-999.0,94,-99.99,,,0.00,0,weatherlink.com 1.10,2013-02-25 01:31:00,
2013-02-25 01:46:00,29.9,29.0,30.46,ENE,59,0.0,-999.0,95,-99.99,,,0.00,0,weatherlink.com 1.10,2013-02-25 01:46:00,
2013-02-25 02:01:00,30.5,29.0,30.46,ENE,59,0.0,-999.0,95,-99.99,,,0.00,0,weatherlink.com 1.10,2013-02-25 02:01:00,
2013-02-25 02:16:00,30.8,30.0,30.46,ENE,59,0.0,-999.0,95,-99.99,,,0.00,0,weatherlink.com 1.10,2013-02-25 02:16:00,
2013-02-25 02:31:00,31.0,30.0,30.47,ENE,59,0.0,-999.0,95,-99.99,,,0.00,0,weatherlink.com 1.10,2013-02-25 02:31:00,
2013-02-25 02:46:00,31.4,30.0,30.47,ENE,59,0.0,-999.0,95,-99.99,,,0.00,0,weatherlink.com 1.10,2013-02-25 02:46:00,
2013-02-25 03:01:00,31.5,30.0,30.47,ENE,59,2.0,-999.0,95,-99.99,,,0.00,0,weatherlink.com 1.10,2013-02-25 03:01:00,
2013-02-25 03:16:00,32.0,31.0,30.48,ENE,59,3.0,-999.0,95,-99.99,,,0.00,0,weatherlink.com 1.10,2013-02-25 03:16:00,
2013-02-25 03:31:00,32.0,31.0,30.47,ENE,59,0.0,-999.0,95,-99.99,,,0.00,0,weatherlink.com 1.10,2013-02-25 03:31:00,
2013-02-25 04:01:00,31.5,30.0,30.48,ENE,59,0.0,-999.0,95,-99.99,,,0.00,0,weatherlink.com 1.10,2013-02-25 04:01:00,
2013-02-25 04:16:00,31.1,30.0,30.48,ENE,59,0.0,-999.0,95,-99.99,,,0.00,0,weatherlink.com 1.10,2013-02-25 04:16:00,
2013-02-25 04:31:00,30.0,29.0,30.48,ENE,59,0.0,-999.0,94,-99.99,,,0.00,0,weatherlink.com 1.10,2013-02-25 04:31:00,
2013-02-25 04:46:00,29.7,29.0,30.48,ENE,59,0.0,-999.0,95,-99.99,,,0.00,0,weatherlink.com 1.10,2013-02-25 04:46:00,
2013-02-25 05:02:00,29.7,29.0,30.48,ENE,59,0.0,-999.0,95,-99.99,,,0.00,0,weatherlink.com 1.10,2013-02-25 05:02:00,
2013-02-25 05:17:00,29.8,29.0,30.48,ENE,59,0.0,-999.0,95,-99.99,,,0.00,0,weatherlink.com 1.10,2013-02-25 05:17:00,
2013-02-25 05:32:00,29.0,28.0,30.48,ENE,59,0.0,-999.0,95,-99.99,,,0.00,0,weatherlink.com 1.10,2013-02-25 05:32:00,
2013-02-25 05:47:00,28.0,27.0,30.49,ENE,59,0.0,-999.0,95,-99.99,,,0.00,0,weatherlink.com 1.10,2013-02-25 05:47:00,
2013-02-25 06:02:00,27.7,27.0,30.49,ENE,59,0.0,-999.0,95,-99.99,,,0.00,0,weatherlink.com 1.10,2013-02-25 06:02:00,
2013-02-25 06:17:00,28.2,27.0,30.49,ENE,59,0.0,-999.0,96,-99.99,,,0.00,0,weatherlink.com 1.10,2013-02-25 06:17:00,
2013-02-25 06:32:00,28.0,27.0,30.50,ENE,59,0.0,-999.0,95,-99.99,,,0.00,0,weatherlink.com 1.10,2013-02-25 06:32:00,
2013-02-25 06:47:00,27.6,26.0,30.50,ENE,59,0.0,-999.0,95,-99.99,,,0.00,0,weatherlink.com 1.10,2013-02-25 06:47:00,
2013-02-25 07:02:00,27.2,26.0,30.51,ENE,59,0.0,-999.0,95,-99.99,,,0.00,0,weatherlink.com 1.10,2013-02-25 07:02:00,
2013-02-25 07:17:00,26.9,26.0,30.51,ENE,59,0.0,-999.0,95,-99.99,,,0.00,0,weatherlink.com 1.10,2013-02-25 07:17:00,
2013-02-25 07:32:00,27.6,27.0,30.52,ENE,59,0.0,-999.0,96,-99.99,,,0.00,7,weatherlink.com 1.10,2013-02-25 07:32:00,
2013-02-25 07:47:00,27.5,26.0,30.52,ENE,59,0.0,-999.0,95,-99.99,,,0.00,12,weatherlink.com 1.10,2013-02-25 07:47:00,
2013-02-25 08:02:00,26.6,25.0,30.52,ENE,59,0.0,-999.0,95,-99.99,,,0.00,18,weatherlink.com 1.10,2013-02-25 08:02:00,
2013-02-25 08:17:00,26.9,26.0,30.52,ENE,59,0.0,-999.0,96,-99.99,,,0.00,23,weatherlink.com 1.10,2013-02-25 08:17:00,
2013-02-25 08:32:00,27.7,27.0,30.53,ENE,59,0.0,-999.0,96,-99.99,,,0.00,74,weatherlink.com 1.10,2013-02-25 08:32:00,
2013-02-25 08:47:00,28.6,28.0,30.53,ENE,59,0.0,-999.0,96,-99.99,,,0.00,116,weatherlink.com 1.10,2013-02-25 08:47:00,
2013-02-25 09:02:00,29.8,29.0,30.53,ENE,59,1.0,-999.0,97,-99.99,,,0.00,118,weatherlink.com 1.10,2013-02-25 09:02:00,
2013-02-25 09:17:00,32.2,32.0,30.53,ENE,59,0.0,-999.0,97,-99.99,,,0.00,186,weatherlink.com 1.10,2013-02-25 09:17:00,
2013-02-25 09:32:00,34.2,34.0,30.53,ENE,59,2.0,-999.0,97,-99.99,,,0.00,234,weatherlink.com 1.10,2013-02-25 09:32:00,
2013-02-25 09:47:00,35.6,35.0,30.53,ENE,59,0.0,-999.0,97,-99.99,,,0.00,250,weatherlink.com 1.10,2013-02-25 09:47:00,
2013-02-25 10:02:00,37.1,36.0,30.54,ENE,59,0.0,-999.0,96,-99.99,,,0.00,174,weatherlink.com 1.10,2013-02-25 10:02:00,
2013-02-25 10:17:00,38.4,37.0,30.54,ENE,59,0.0,-999.0,95,-99.99,,,0.00,325,weatherlink.com 1.10,2013-02-25 10:17:00,
2013-02-25 10:32:00,39.6,37.0,30.54,NNE,17,3.0,-999.0,91,-99.99,,,0.00,341,weatherlink.com 1.10,2013-02-25 10:32:00,
2013-02-25 10:48:00,41.1,38.0,30.54,NNE,24,5.0,-999.0,87,-99.99,,,0.00,367,weatherlink.com 1.10,2013-02-25 10:48:00,
2013-02-25 11:03:00,41.6,37.0,30.54,North,9,2.0,-999.0,83,-99.99,,,0.00,475,weatherlink.com 1.10,2013-02-25 11:03:00,
2013-02-25 11:18:00,42.0,37.0,30.54,NNW,343,3.0,-999.0,83,-99.99,,,0.00,401,weatherlink.com 1.10,2013-02-25 11:18:00,
2013-02-25 11:33:00,43.0,37.0,30.54,North,5,7.0,-999.0,80,-99.99,,,0.00,149,weatherlink.com 1.10,2013-02-25 11:33:00,
2013-02-25 11:48:00,42.6,37.0,30.55,NNW,337,3.0,-999.0,80,-99.99,,,0.00,404,weatherlink.com 1.10,2013-02-25 11:48:00,
2013-02-25 12:03:00,43.2,37.0,30.55,NE,36,4.0,-999.0,80,-99.99,,,0.00,424,weatherlink.com 1.10,2013-02-25 12:03:00,
2013-02-25 12:18:00,43.5,37.0,30.55,NE,38,4.0,-999.0,79,-99.99,,,0.00,438,weatherlink.com 1.10,2013-02-25 12:18:00,
2013-02-25 12:33:00,43.2,37.0,30.54,NE,40,3.0,-999.0,78,-99.99,,,0.00,476,weatherlink.com 1.10,2013-02-25 12:33:00,
2013-02-25 12:48:00,43.2,36.0,30.54,NNE,22,3.0,-999.0,77,-99.99,,,0.00,139,weatherlink.com 1.10,2013-02-25 12:48:00,
2013-02-25 13:03:00,43.4,37.0,30.54,NE,53,1.0,-999.0,79,-99.99,,,0.00,420,weatherlink.com 1.10,2013-02-25 13:03:00,
2013-02-25 13:18:00,44.3,37.0,30.54,NNE,17,7.0,-999.0,76,-99.99,,,0.00,403,weatherlink.com 1.10,2013-02-25 13:18:00,
2013-02-25 13:33:00,45.0,38.0,30.53,East,81,3.0,-999.0,76,-99.99,,,0.00,396,weatherlink.com 1.10,2013-02-25 13:33:00,
2013-02-25 13:48:00,44.8,37.0,30.53,ENE,71,8.0,-999.0,73,-99.99,,,0.00,367,weatherlink.com 1.10,2013-02-25 13:48:00,
2013-02-25 14:03:00,44.6,37.0,30.53,ENE,57,5.0,-999.0,75,-99.99,,,0.00,353,weatherlink.com 1.10,2013-02-25 14:03:00,
2013-02-25 14:18:00,45.0,37.0,30.53,NE,54,6.0,-999.0,74,-99.99,,,0.00,339,weatherlink.com 1.10,2013-02-25 14:18:00,
2013-02-25 14:33:00,46.1,38.0,30.53,ENE,72,4.0,-999.0,72,-99.99,,,0.00,320,weatherlink.com 1.10,2013-02-25 14:33:00,
2013-02-25 14:48:00,46.7,38.0,30.52,NE,42,4.0,-999.0,73,-99.99,,,0.00,292,weatherlink.com 1.10,2013-02-25 14:48:00,
2013-02-25 15:03:00,47.0,38.0,30.52,ENE,57,4.0,-999.0,72,-99.99,,,0.00,265,weatherlink.com 1.10,2013-02-25 15:03:00,
2013-02-25 15:18:00,47.7,38.0,30.52,NE,44,0.0,-999.0,70,-99.99,,,0.00,251,weatherlink.com 1.10,2013-02-25 15:18:00,
2013-02-25 15:33:00,47.6,37.0,30.52,SSE,148,2.0,-999.0,68,-99.99,,,0.00,220,weatherlink.com 1.10,2013-02-25 15:33:00,
2013-02-25 15:48:00,46.8,36.0,30.52,NE,40,2.0,-999.0,66,-99.99,,,0.00,190,weatherlink.com 1.10,2013-02-25 15:48:00,
2013-02-25 16:03:00,46.4,36.0,30.53,East,88,5.0,-999.0,67,-99.99,,,0.00,155,weatherlink.com 1.10,2013-02-25 16:03:00,
2013-02-25 16:18:00,46.3,36.0,30.52,ENE,59,4.0,-999.0,67,-99.99,,,0.00,120,weatherlink.com 1.10,2013-02-25 16:18:00,
2013-02-25 16:33:00,45.7,36.0,30.53,East,101,4.0,-999.0,68,-99.99,,,0.00,84,weatherlink.com 1.10,2013-02-25 16:33:00,
2013-02-25 16:48:00,45.5,35.0,30.52,East,85,5.0,-999.0,68,-99.99,,,0.00,54,weatherlink.com 1.10,2013-02-25 16:48:00,
2013-02-25 17:03:00,44.3,35.0,30.52,ENE,73,6.0,-999.0,71,-99.99,,,0.00,21,weatherlink.com 1.10,2013-02-25 17:03:00,
2013-02-25 17:18:00,43.2,35.0,30.52,NE,52,4.0,-999.0,73,-99.99,,,0.00,16,weatherlink.com 1.10,2013-02-25 17:18:00,
2013-02-25 17:33:00,42.2,34.0,30.53,ENE,59,4.0,-999.0,74,-99.99,,,0.00,9,weatherlink.com 1.10,2013-02-25 17:33:00,
2013-02-25 17:48:00,41.1,34.0,30.53,North,11,0.0,-999.0,76,-99.99,,,0.00,0,weatherlink.com 1.10,2013-02-25 17:48:00,
2013-02-25 18:03:00,39.7,33.0,30.54,NNE,13,2.0,-999.0,77,-99.99,,,0.00,0,weatherlink.com 1.10,2013-02-25 18:03:00,
2013-02-25 18:18:00,38.2,32.0,30.54,NNE,13,0.0,-999.0,78,-99.99,,,0.00,0,weatherlink.com 1.10,2013-02-25 18:18:00,
2013-02-25 18:33:00,37.1,31.0,30.55,NNE,13,1.0,-999.0,80,-99.99,,,0.00,0,weatherlink.com 1.10,2013-02-25 18:33:00,
2013-02-25 18:48:00,36.1,31.0,30.55,NNW,342,0.0,-999.0,83,-99.99,,,0.00,0,weatherlink.com 1.10,2013-02-25 18:48:00,
2013-02-25 19:03:00,36.1,32.0,30.55,North,9,0.0,-999.0,85,-99.99,,,0.00,0,weatherlink.com 1.10,2013-02-25 19:03:00,
2013-02-25 19:18:00,35.9,32.0,30.56,NNE,20,0.0,-999.0,85,-99.99,,,0.00,0,weatherlink.com 1.10,2013-02-25 19:18:00,
2013-02-25 19:33:00,35.6,32.0,30.56,NNE,13,2.0,-999.0,86,-99.99,,,0.00,0,weatherlink.com 1.10,2013-02-25 19:33:00,
2013-02-25 19:48:00,35.5,32.0,30.56,NNE,19,3.0,-999.0,87,-99.99,,,0.00,0,weatherlink.com 1.10,2013-02-25 19:48:00,
2013-02-25 20:03:00,34.4,30.0,30.56,North,9,0.0,-999.0,85,-99.99,,,0.00,0,weatherlink.com 1.10,2013-02-25 20:03:00,
2013-02-25 20:18:00,33.8,31.0,30.56,NNE,30,3.0,-999.0,88,-99.99,,,0.00,0,weatherlink.com 1.10,2013-02-25 20:18:00,
2013-02-25 20:33:00,34.3,31.0,30.57,NNE,15,1.0,-999.0,89,-99.99,,,0.00,0,weatherlink.com 1.10,2013-02-25 20:33:00,
2013-02-25 20:48:00,33.5,31.0,30.57,NNE,32,1.0,-999.0,89,-99.99,,,0.00,0,weatherlink.com 1.10,2013-02-25 20:48:00,
2013-02-25 21:03:00,33.5,31.0,30.57,North,355,2.0,-999.0,90,-99.99,,,0.00,0,weatherlink.com 1.10,2013-02-25 21:03:00,